Hourly Data Report for October 16, 2021

OTTAWA INTL A
ONTARIO
Current Station Operator: NAVCAN

45°19'00.000" N
75°40'00.000" W
114.90 m
6106001
71628
YOW

Download Data

Hourly Data (October 2021)
Hourly Data Report for October 16, 2021
TIME
LST
Temp Definition
°C
Dew Point Definition
°C
Rel Hum Definition
%
Precip. Amount Definition
mm

Wind Dir Definition
10's deg

Wind Spd Definition
km/h
Visibility Definition
km
Stn Press Definition
kPa
Hmdx Definition


Wind Chill Definition


Weather Definition


00:00 16.8 16.4 98   8 14 6.4 99.31     Rain, Fog
01:00 16.6 16.3 98   7 19 6.4 99.18     Rain, Fog
02:00 16.5 16.3 98   8 14 6.4 99.08     Rain, Fog
03:00 16.5 16.3 99   10 15 6.4 98.99     Rain, Fog
04:00 17.1 16.9 99   11 18 2.4 98.89     Fog
05:00 17.5 17.3 99   12 14 6.4 98.78     Fog
06:00 17.7 17.5 99   11 11 6.4 98.69     Fog
07:00 18.3 18.0 98   15 13 6.4 98.62     Fog
08:00 18.3 18.1 98   18 7 1.2 98.51     Heavy Rain Showers, Fog
09:00 18.5 18.2 98   24 17 3.2 98.51     Moderate Rain Showers, Fog
10:00 18.0 17.7 98   23 11 8.1 98.51     Rain Showers, Fog
11:00 16.7 15.9 95   25 8 16.1 98.43     Rain Showers
12:00 16.3 15.1 93   25 21 24.1 98.44     LegendNANA
13:00 15.5 14.7 95   27 17 24.1 98.40     Cloudy
14:00 15.4 14.2 92   25 14 24.1 98.51     LegendNANA
15:00 15.7 14.7 93   23 9 24.1 98.55     LegendNANA
16:00 15.3 13.6 90   25 19 24.1 98.63     Mostly Cloudy
17:00 13.5 12.4 93   27 22 4.8 98.74     Rain Showers, Fog
18:00 13.4 11.7 89   27 25 24.1 98.86     Rain Showers
19:00 11.8 10.6 92   27 27 24.1 98.91     Mostly Cloudy
20:00 10.9 8.9 88   26 23 24.1 99.05     LegendNANA
21:00 10.4 8.2 86   27 24 24.1 99.16     LegendNANA
22:00 10.2 8.1 87   27 18 24.1 99.18     Mostly Cloudy
23:00 9.6 7.0 84   27 21 24.1 99.23     LegendNANA

Notes on Data Quality.

Legend

  • E = Estimated
  • M = Missing
  • NA = Not Available*
  • [empty] = Indicates an unobserved value
Date modified: